Regional Weather Roundup
Issued by NWS Wakefield, VA

Home | Current Version | Previous Version | Graphics & Text | Print | Product List | Glossary On
Versions: 1 2 3 4 5 6 7 8 9 10 11 12 13 14 15 16 17 18 19 20 21 22 23 24 25 26 27 28 29 30 31 32 33 34 35 36 37 38 39 40 41 42 43 44 45 46 47 48 49 50
000
ASUS41 KAKQ 290515
RWRAKQ

REGIONAL WEATHER ROUNDUP
NATIONAL WEATHER SERVICE WAKEFIELD VA
100 AM EDT SUN MAY 29 2016

Note: "fair" indicates few or no clouds below 12,000 feet with no
significant weather and/or obstructions to visibility. * = Denotes
station may not report precipitation (e.g., rain,snow,etc.),
thunder or fog.

VAZ042-051-052>054-056-290600-
NORTHERN VIRGINIA

CITY           SKY/WX    TMP DP  RH WIND       PRES   REMARKS
WASH NATIONAL  FAIR      71  63  75 S8        30.16R
DULLES         FAIR      71  61  70 S8        30.16R
FORT BELVOIR   FAIR      66  62  89 CALM      30.15S
QUANTICO       FAIR      71  64  78 S6        30.16S
FREDERICKSBRG* FAIR      66  62  87 CALM      30.15S
STAFFORD*      FAIR      61  59  93 CALM      30.20S
WARRENTON      FAIR      65  58  77 CALM      30.15S
CULPEPER*      FAIR      64  64  99 CALM      30.17S
MANASSAS*      FAIR      66  64  94 CALM      30.16S
LEESBURG*      FAIR      72  68  88 S5        30.16S
WINCHESTER     FAIR      68  61  77 S6        30.14F
FRONT ROYAL*   FAIR      64  61  88 S5        30.14S
LURAY*         FAIR      63  63 100 CALM      30.16S
$$

VAZ048-049-060>072-079>083-290600-
CENTRAL AND SOUTH CENTRAL VIRGINIA

CITY           SKY/WX    TMP DP  RH WIND       PRES   REMARKS
RICHMOND       FAIR      67  63  87 CALM      30.16R
CHESTERFIELD*  FAIR      66  55  68 CALM      30.17S
PETERSBURG*    FAIR      64  64 100 CALM      30.16S
HANOVER        FAIR      64  60  87 CALM      30.17S
TAPPAHANNOCK*  FAIR      67  62  85 S3        30.17S
QUINTON*       FAIR      66  64  94 CALM      30.16S
CHARLOTTSVILLE FAIR      69  60  73 CALM      30.15F
GORDONSVILLE*  FAIR      63  63  99 CALM      30.15S
ORANGE*        FAIR      63  63 100 CALM      30.18S
LOUISA*        FAIR      63  61  94 CALM      30.15S
BUMPASS*       FAIR      66  62  86 CALM      30.16S
FARMVILLE*     FAIR      64  64  99 CALM      30.14S
CREWE*         FAIR      62  62 100 CALM      30.16R
FORT PICKETT*  NOT AVBL
CHASE CITY*    FAIR      68  64  85 CALM      30.15R
CLARKSVILLE*   FAIR      70  68  94 CALM      30.14R
SOUTH HILL*    FAIR      67  64  90 CALM      30.21R
LAWRENCEVILLE* FAIR      69  65  89 CALM      30.15S
EMPORIA*         N/A     64  63  94 CALM      30.17R
$$

VAZ088>098-290600-
SOUTHEAST VIRGINIA

CITY           SKY/WX    TMP DP  RH WIND       PRES   REMARKS
NORFOLK        FAIR      70  65  84 SE5       30.15S
VIRGINIA BEACH MOCLDY    74  66  76 E6        30.15S
NORFOLK NAVAL  FAIR      70  65  84 E5        30.17S
WEST POINT*    FAIR      65  63  91 CALM      30.17F
SALUDA*        FAIR      65  65  97 CALM      30.16S
NEWPORT NEWS   FAIR      64  63  96 CALM      30.16S
LANGLEY AFB    FAIR      69  66  89 E5        30.16R
FORT EUSTIS    FAIR      67  61  79 CALM      30.14S
WILLIAMSBURG*  FAIR      66  64  94 CALM      30.17S
HR EXEC AP*      N/A     63  59  88 CALM      30.18R
FRANKLIN*      FAIR      64  61  90 CALM      30.16S
US460-WAKEFLD  FAIR      64  61  90 CALM      30.16R
$$

VAZ020-022-025-037-045-290600-
WEST CENTRAL AND SOUTHWEST VIRGINIA

CITY           SKY/WX    TMP DP  RH WIND       PRES   REMARKS
STAUNTON*      FAIR      61  60  96 CALM      30.20S
WAYNESBORO*    FAIR      62  59  88 CALM      30.19S
HOT SPRINGS VA FAIR      64  55  74 S7        30.27F
LYNCHBURG      FAIR      64  58  80 CALM      30.18S
DANVILLE       FAIR      66  62  87 CALM      30.14S
SOUTH BOSTON*  FAIR      65  63  95 CALM      30.14S
MARTINSVILLE   FAIR      62  61  97 CALM      30.18F
ROANOKE        FAIR      68  61  78 CALM      30.19S
BLACKSBURG     FAIR      64  60  86 CALM      30.24S
DUBLIN*        FAIR      65  62  91 CALM      30.22F
MARION*        FAIR      62  57  86 CALM      30.24F
HILLSVILLE*    FAIR      65  57  74 CALM      30.22S
RICHLANDS*     FAIR      67  62  83 SE5       30.21S
WISE*          FAIR      68  52  56 SW3       30.22S
ABINGDON*      FAIR      68  58  68 E3        30.19R
$$

MDZ021>025-VAZ099-100-290600-
SOUTHERN MARYLAND AND THE DELMARVA PENINSULA

CITY           SKY/WX    TMP DP  RH WIND       PRES   REMARKS
PATUXENT RIVER CLEAR     67  61  81 S3        30.15S
BAY BRIDGE APT CLEAR     72  64  78 S6        30.15S
LEONARDTOWN    CLEAR     64  61  88 CALM      30.17F
DOVER          CLEAR     68  60  75 S7        30.15F
GEORGETOWN     CLOUDY    62  60  93 CALM      30.17S
EASTON         CLEAR     67  64  90 CALM      30.19F
CAMBRIDGE        N/A     61  59  94 CALM      30.16S
SALISBURY      CLOUDY    60  57  89 CALM      30.17R
OCEAN CITY     PTCLDY    66  63  90 S5        30.17S
WALLOPS ISLAND FAIR      66  64  93 CALM      30.17S
ACCOMACK*      FAIR      66  63  88 SE5       30.17S
$$

NCZ012>017-030>032-290600-
NORTH CENTRAL AND EASTERN NORTH CAROLINA

CITY           SKY/WX    TMP DP  RH WIND       PRES   REMARKS
ROANOKE RAPIDS FAIR      68  64  88 CALM      30.14S
RALEIGH        MOCLDY    74  63  68 SE5       30.14S
ELIZABETH CITY CLOUDY    71  70  96 E6        30.15S
AHOSKIE*       CLOUDY    67  64  91 CALM      30.15S
EDENTON*       PTCLDY   N/A N/A N/A CALM      30.15S
CURRITUCK*     PTCLDY    72  71  97 E3        30.16S
KILL DEVIL HLS PTCLDY    70  68  94 CALM      30.14S
MANTEO         NOT AVBL
CAPE HATTERAS  PTCLDY    76  72  87 E8        30.13F
TARBORO*       FAIR      67  66  96 CALM      30.15S
GOLDSBORO      NOT AVBL
WASHINGTON     CLOUDY    69  68  95 CALM      30.14S
GREENVILLE     CLOUDY    70  70 100 CALM      30.15S
NEW BERN       MOCLDY    73  70  90 NE7       30.12F
WILMINGTON     CLOUDY    74  72  93 E7        30.07F
$$

VAZ048-290600-
ELSEWHERE

CITY           SKY/WX    TMP DP  RH WIND       PRES   REMARKS
HARRISBURG PA  CLEAR     73  63  70 VRB5      30.13R
BALTIMORE      PTCLDY    68  59  73 CALM      30.15S
ANNAPOLIS      CLEAR     69  63  81 SE5       30.15R
ANDREWS AFB    FAIR      67  61  79 S6        30.15S
PHILADELPHIA   CLOUDY    70  59  68 S6        30.15S
HENDERSON NC   MOCLDY    70  63  77 CALM      30.15S
GREENSBORO     CLOUDY    72  58  61 CALM      30.14S
ROCKY MOUNT    MOCLDY    68  65  90 CALM      30.14S
$$

VAZ100-290600-
MARINE

STATION/POSITION TIME  TEMP    WIND        PRES    WAVE   SWELL
                       AIR SEA DIR/SP/G            HT/PER HT/PER
                 (UTC) (F)     (DEG/KT/KT) (MB)    (FT/S) (FT/S)
BRANDYWINE LGT   0400   68     220/  8/  9 1021.8R
CAPE MAY NJ      0400   66 68  160/  6/  9 1021.5S
LEWES DE         0400   69 64  190/  4/  5 1021.5F
15NM E FENWICK I 0450   65 62              1021.7S   2/ 8
OCEAN-CITY-INLET 0400   63 61  190/  3/  5 1021.9F
WACHAPREAGUE VA  0400   70 77  120/  1/  3 1021.1F
THOMAS POINT MD  0500   69 68  190/ 11/ 12 1022.3R
GOOSES REEF MD   0500   68 67  180/  8/  8 1022.0S   1
COVE POINT MD    0400   67     190/  9/ 10 1021.8S
SOLOMONS ISLAND  0400   69 67  150/  5/  5   N/A
BISHOPS HEAD MD  0400   72 74  160/  9/ 11 1021.3F
PINEY POINT MD   0400          170/  6/  8   N/A
POTOMAC MD       0500   69 70  190/  4/  6 1020.3S   0
CAMBRIDGE MD     0400   67 68  130/  2/  3 1020.4F
LEWISETTA VA     0400   70 73  190/  7/  9 1020.9R
RAPPAHANNOCK LGT 0400          130/  8/  9 1021.8F
STINGRAY PT      0500   70 69  170/  2/  2 1021.7R   1
YORK RVR RNG VA  0400   71     150/  6/  7 1020.6F
YORKTOWN VA      0400   71 71  160/  4/  5 1020.9F
JAMESTOWN VA     0500   72 74  100/  4/  6   N/A     0
DOMINION TERM VA 0400   72      90/  4/  6 1021.0F
KIPTOPEKE VA     0400      70   90/  6/  7   N/A
CHES BAY BRIDGE  0400   70 69   70/  5/  6 1021.1F
CAPE HENRY VA    0400   70     110/  6/  6   N/A
CHESAPEAKE LGHT  0400   70      90/ 10/ 10 1022.0S
WILLOUBY STN VA  0400   70      70/  5/  5 1022.1F
CAPE HENRY BUOY  0412      68                N/A     3/ 8
1ST LANDING BUOY 0500   69 69  110/  6/  8 1021.1F   2/ 4
CAPE CHARLES BUO 0426      71                N/A     2/ 8   2/ 8
OFFSHORE WE BUOY 0421      70                N/A     3/ 8   3/ 6
64NM E OF VA BCH 0450   69 65   90/  6/  6 1021.0F   4/ 8   3/ 8
DUCK PIER NC     0400   68 60  110/  6/  7 1020.3F
44100 DUCK FRF   0424      69                N/A     3/ 8
44056 DUCK FRF   0411      67                N/A     3/ 7
OREGON INLET NC  0400   73 74   90/  3/  4 1020.8F
HATTERAS NC      0400   76 76  100/  5/  7 1019.7F
DIAMOND SHLS NC  0450   78 78  140/ 16/ 17 1019.7F   4/ 5   2/ 8
CAPE LOOKOUT NC1F1C2F2C3F3C4F4C5F5C6F6C7F7C8M1C9!


USA.gov is the U.S. government's official web portal to all federal, state and local government web resources and services.